Tracking 19564 objects as of 19-Mar-2019
HD Live streaming from Space Station
objects crossing your sky now

FACSAT 1

Track FACSAT 1 now!
10-day predictions


NORAD ID: 43721
Int'l Code: 2018-096C
Perigee: 483.5 km
Apogee: 506.4 km
Inclination: 97.5 °
Period: 94.4 minutes
Semi major axis: 6865 km
RCS: Unknown
Launch date: November 29, 2018
Source: (TBD)
Launch site: SRIHARIKOTA (SRI)
aabbcc
Your satellite tracking list
Your tracking list is empty




NASA's NSSDC Master Catalog

Two Line Element Set (TLE):
1 43721U 18096C   19077.94185797 +.00001442 +00000-0 +58829-4 0  9992
2 43721 097.4688 147.9321 0016677 295.4347 064.5165 15.25986755016747
Source of the keplerian elements: AFSPC